Wind_Speed
30 33 32 30 26 24 27 28 27 24 22 20 19 15 14 16 16 14 15 16 16 16 15 14 13 14 16 16 15 13 12 11 10 10 10 10 9 10 10 10 9 9 8 7 7 6 4 4 5 5 4 3 2 3 3 5 5 6 6 6 7 8 9 8 5 3 5 8 11 13 15 17 17 18 18 18 16 15 14 13 13 13 12 12 12
30 32 33 32 26 23 25 27 25 24 22 21 19 16 14 18 20 19 18 17 17 16 16 15 14 14 15 16 17 16 14 13 12 12 11 11 10 10 10 10 10 9 9 8 8 7 5 3 3 3 3 3 2 1 2 3 3 4 5 5 7 9 10 11 10 7 8 11 13 15 17 18 18 19 19 19 19 17 16 15 14 14 14 13 13
29 31 32 31 26 21 22 24 24 23 24 24 22 17 16 19 22 23 21 20 19 18 17 16 15 15 15 16 17 17 17 15 14 13 13 12 11 11 11 11 11 11 10 9 9 8 6 5 3 3 2 1 1 1 0 1 2 2 4 5 6 8 10 12 12 10 11 13 14 16 18 18 18 19 20 19 18 18 17 16 16 16 16 15 15
26 28 28 27 24 22 23 24 24 25 26 26 23 19 18 20 23 24 23 22 21 20 20 19 18 17 16 15 16 17 17 17 16 15 14 14 13 12 12 12 12 12 11 10 10 9 8 6 5 4 3 2 1 1 1 1 1 1 2 3 5 6 8 10 11 10 10 13 14 15 16 17 18 19 21 21 19 18 18 17 17 17 16 17 17
23 24 23 23 24 24 24 25 27 26 26 26 24 20 20 22 23 23 23 23 23 23 24 24 22 21 19 17 17 17 17 17 17 16 16 15 15 15 15 14 14 14 13 11 11 11 9 8 7 6 6 5 4 3 3 3 2 2 1 2 3 5 7 9 9 9 9 11 12 14 16 18 19 20 22 23 22 21 20 19 19 19 20 19 18
20 21 21 22 25 26 26 27 27 26 26 26 25 24 23 24 24 23 23 24 26 26 28 27 25 24 23 20 19 19 18 18 17 17 17 17 17 16 17 17 16 16 16 15 14 13 12 11 9 9 8 8 6 6 5 4 3 2 2 2 3 5 7 7 7 7 7 9 10 13 16 19 21 21 22 24 23 22 23 24 23 23 24 24 24
17 19 20 22 24 26 27 26 25 25 24 24 25 26 25 25 26 26 27 27 27 28 29 29 26 25 24 23 23 22 21 20 19 19 19 19 19 18 18 18 19 19 19 18 17 16 15 14 13 12 11 10 9 7 6 5 4 3 4 4 5 6 7 7 6 6 6 7 9 12 15 17 19 21 22 23 22 21 25 27 28 28 29 29 29
14 18 21 23 24 25 26 26 25 23 21 21 21 21 23 26 27 28 28 26 27 27 27 25 24 25 24 23 24 25 24 23 22 22 22 21 21 21 20 20 21 21 21 21 20 19 17 16 16 15 14 13 11 9 7 7 6 5 5 5 6 8 8 7 5 5 5 7 9 11 13 15 17 19 22 23 23 22 23 24 26 29 30 30 30
13 15 19 21 23 23 23 24 23 23 22 21 19 19 23 25 23 23 22 20 21 22 19 19 21 22 21 20 22 26 29 28 25 24 25 25 24 24 23 23 23 24 24 24 23 22 20 18 18 18 17 16 14 11 9 8 7 6 6 6 7 8 8 6 5 5 6 8 10 11 13 15 17 18 20 20 20 21 22 21 22 25 28 31 29
14 15 17 18 20 21 21 21 21 21 22 21 20 22 24 21 18 19 19 18 19 18 16 17 19 20 18 18 20 26 30 29 25 24 26 26 26 26 26 26 26 26 26 26 25 24 23 21 20 19 18 17 15 13 10 9 8 7 7 6 7 8 7 6 5 5 6 8 9 10 13 15 16 17 17 17 17 18 21 21 23 24 26 28 27
16 18 19 19 19 19 20 20 20 20 21 22 23 25 23 20 20 22 20 17 17 17 20 21 21 20 18 18 21 25 26 24 22 23 24 24 24 25 25 25 25 25 26 28 28 27 26 24 22 21 20 19 16 14 11 9 9 8 7 7 8 8 7 6 5 6 7 8 8 9 10 13 16 16 15 17 18 19 20 20 21 23 22 20 20
13 15 17 17 17 17 18 19 19 21 22 22 23 24 23 21 21 21 20 16 14 16 20 21 19 18 19 20 23 22 18 16 16 18 19 19 20 21 22 23 23 23 25 27 30 30 28 26 24 22 21 20 17 14 11 9 8 8 7 7 8 8 7 6 6 7 8 9 9 10 10 12 14 14 14 16 18 19 20 19 18 19 19 18 19
8 10 11 12 13 14 15 17 19 20 21 20 19 19 17 16 15 14 13 11 10 12 14 14 14 17 20 20 17 12 8 7 8 9 10 11 12 15 17 19 21 22 24 25 27 29 28 26 25 23 22 19 16 13 11 9 8 8 8 8 7 7 7 7 8 9 10 10 11 11 11 12 13 14 14 15 17 19 20 21 22 21 21 21 22
7 7 7 8 9 12 13 15 17 17 16 15 14 13 11 10 8 7 6 5 6 7 7 8 9 11 12 10 8 7 6 5 5 5 6 6 7 9 11 15 18 20 22 22 23 25 26 26 26 24 22 18 15 12 9 8 8 8 8 8 8 8 9 10 10 11 11 11 12 12 12 12 13 14 14 14 16 18 20 23 24 24 25 26 27
4 5 5 5 6 9 11 12 13 13 12 11 10 9 8 7 6 5 4 4 4 4 4 4 3 3 3 4 5 6 7 6 6 6 6 6 6 7 9 11 14 17 19 19 19 21 23 23 23 22 19 16 13 10 9 9 9 9 9 9 9 10 11 11 11 11 10 11 11 12 12 13 13 15 16 17 18 19 20 21 22 23 25 26 27
1 2 4 5 5 7 9 10 11 10 10 10 10 9 8 7 6 5 4 4 4 3 3 3 2 1 2 3 5 6 7 8 9 9 9 9 8 8 9 10 11 12 13 14 14 16 17 17 19 19 17 14 12 11 10 11 11 11 11 10 10 10 10 9 9 9 9 10 11 12 13 14 15 17 17 18 18 17 17 17 18 19 20 21 22
7 4 0 3 5 6 7 8 10 11 12 13 11 9 8 6 5 3 2 1 1 1 1 1 1 2 3 4 6 8 8 9 9 10 11 11 10 9 8 8 8 8 8 9 10 11 13 15 16 16 14 12 12 12 12 13 13 12 11 10 9 9 8 8 8 9 10 11 11 12 13 14 15 15 15 14 14 13 14 16 17 17 17 16 15
11 9 6 3 1 6 8 9 11 13 13 12 11 9 7 6 4 3 1 2 2 1 2 3 4 4 5 6 8 9 10 10 10 11 12 12 11 10 8 6 6 7 8 9 10 12 13 13 12 11 11 11 11 11 12 12 11 10 9 9 8 8 7 8 9 10 10 11 11 12 12 13 13 14 13 13 12 11 13 16 18 18 18 16 15
5 5 4 5 4 2 8 11 13 13 12 11 9 7 6 5 3 3 5 6 5 4 5 6 6 7 8 9 10 11 11 11 11 12 12 11 10 9 8 7 7 10 11 11 12 12 12 11 9 9 10 10 9 8 8 7 6 6 6 6 6 7 8 10 11 12 12 13 13 13 13 13 13 14 14 13 12 11 13 16 18 19 21 20 19
9 5 3 3 3 1 2 6 9 11 11 10 8 7 7 6 4 5 7 7 7 7 7 8 8 10 12 12 12 12 13 13 12 11 10 10 9 9 9 9 11 13 14 13 13 12 11 11 10 9 8 7 6 5 4 3 3 3 4 5 6 8 9 10 10 11 12 13 13 14 15 14 14 14 14 14 13 13 13 15 16 18 21 23 22
12 10 7 6 5 3 3 3 5 6 7 7 6 6 6 5 6 7 8 8 8 9 9 8 8 10 12 14 13 13 13 13 12 9 8 8 8 9 10 12 13 14 15 14 14 13 12 11 10 8 6 5 4 2 2 2 3 4 5 6 6 7 8 8 9 10 11 13 14 15 15 15 16 16 16 16 16 15 15 16 16 17 20 22 24
13 13 11 10 8 8 7 7 7 6 5 5 4 4 4 4 5 6 7 9 10 10 9 8 8 9 11 12 13 12 12 11 10 8 7 7 9 10 12 13 14 15 15 15 14 13 12 11 9 8 6 4 2 1 2 3 4 4 4 5 5 6 7 8 10 11 13 14 15 16 17 18 19 20 20 19 19 18 19 19 19 19 21 22 23
16 15 13 12 10 9 9 10 10 9 8 6 5 4 4 3 3 4 5 7 8 9 8 8 8 8 8 9 11 11 10 9 7 7 8 8 9 10 11 12 13 14 14 14 14 13 12 10 8 6 3 1 1 2 3 3 3 3 4 4 5 6 8 10 12 13 15 16 17 18 19 20 21 21 21 21 21 21 21 21 22 22 23 23 24
18 18 16 16 14 13 12 12 13 12 10 8 7 6 5 5 5 5 5 6 8 9 9 9 9 9 8 8 9 8 8 7 7 8 9 10 10 10 10 11 12 12 11 11 12 12 10 8 6 3 1 1 2 2 2 2 2 2 3 4 5 7 9 11 12 14 15 16 18 19 20 21 21 22 22 23 23 23 23 23 23 23 24 24 23
17 18 19 19 18 18 18 17 16 16 14 12 11 10 8 8 9 8 7 7 8 9 10 10 10 9 9 8 8 7 6 7 8 9 10 10 10 10 10 10 9 9 9 10 10 9 7 6 4 2 1 1 2 2 3 3 2 2 3 5 7 9 10 11 13 14 16 17 18 19 20 21 22 23 23 24 24 24 24 25 25 24 24 24 24
13 15 18 21 22 22 22 20 18 17 16 15 14 13 12 11 11 10 9 9 8 8 9 10 10 11 11 10 9 9 9 11 11 12 12 12 11 10 10 10 9 8 9 9 9 7 6 5 5 5 6 6 5 5 4 3 2 3 5 7 9 10 11 13 14 16 17 18 18 20 21 22 22 23 24 24 24 24 24 24 25 25 25 25 25
14 13 13 15 18 20 21 20 18 17 16 14 14 13 13 12 11 11 10 10 10 9 8 9 10 12 12 11 10 11 12 14 15 14 13 13 12 11 10 9 8 7 7 8 8 8 9 9 8 8 8 6 5 3 2 2 3 5 7 9 10 12 13 15 16 17 18 19 21 22 23 23 23 24 24 24 24 24 23 23 24 25 24 25 25
17 14 12 11 11 13 15 17 17 15 14 14 13 13 13 13 13 12 11 11 12 11 10 10 12 13 13 13 12 12 12 15 16 16 16 15 14 12 10 8 7 7 9 10 11 12 12 11 10 8 6 4 3 2 3 4 6 7 9 11 12 13 15 16 18 20 21 22 23 24 24 23 23 23 23 22 23 24 23 23 23 24 24 23 22
18 18 17 15 14 12 11 11 12 13 13 13 13 13 13 13 13 12 12 13 13 12 12 12 12 13 14 15 15 16 18 20 19 17 16 13 11 9 9 9 9 10 11 13 14 15 13 10 8 6 5 4 4 4 5 7 8 9 10 12 14 15 17 18 20 21 22 23 23 23 23 23 23 23 23 22 23 23 23 22 22 23 23 22 21
20 20 19 18 17 16 15 12 10 11 12 13 13 13 13 14 14 14 14 15 14 14 13 12 11 11 13 15 16 17 19 21 21 18 15 12 9 9 10 10 11 13 14 15 14 13 11 9 7 6 5 5 5 6 7 8 9 11 12 14 16 17 19 20 21 21 23 23 23 22 22 22 23 23 23 23 24 24 24 23 23 23 22 22 21
21 21 20 20 20 19 18 16 14 13 13 13 14 15 15 14 14 15 16 16 15 15 14 13 11 10 11 15 17 16 16 20 22 19 15 13 12 11 12 12 13 15 15 14 12 10 9 8 7 6 5 6 6 6 7 8 10 12 15 16 17 18 20 21 22 23 23 23 23 22 23 23 23 24 24 25 26 26 26 25 23 22 22 22 22
20 21 20 21 21 19 19 19 17 16 15 14 15 17 17 14 12 12 13 15 15 15 14 13 11 10 12 16 16 15 18 23 22 18 16 14 13 13 13 14 15 15 13 11 10 9 8 7 7 6 5 6 6 6 7 9 11 13 15 17 18 19 21 23 24 24 24 23 23 23 24 24 25 25 26 26 26 26 25 25 23 23 23 23 23
21 20 18 17 16 16 18 20 20 18 16 15 16 18 19 18 15 12 10 11 12 13 12 10 9 10 12 14 14 16 21 24 22 19 17 16 16 16 16 16 15 13 9 7 8 9 7 6 6 5 5 5 5 6 7 9 11 13 14 16 19 21 23 24 25 26 25 24 23 24 25 26 26 27 27 27 26 25 25 25 24 23 22 22 22
23 21 20 18 15 13 14 17 19 20 19 18 18 19 21 21 19 16 14 12 11 11 11 11 9 10 13 14 15 18 23 24 21 19 19 18 17 17 17 16 14 10 7 6 7 7 6 5 5 4 4 4 5 6 7 9 11 13 14 17 20 23 25 26 27 27 27 26 26 26 27 27 28 27 27 26 26 25 24 24 23 22 21 21 21
26 24 22 21 19 17 14 14 16 19 20 19 19 20 22 22 22 20 19 17 16 15 13 13 13 13 14 17 19 22 23 22 20 20 19 19 18 17 15 14 12 9 7 6 6 6 5 4 4 3 3 3 4 5 7 9 11 13 16 19 22 25 26 27 27 27 27 27 27 28 28 28 28 28 26 26 25 24 24 24 23 22 22 21 21
28 27 24 22 21 20 17 14 13 16 20 19 18 19 22 23 22 21 20 20 19 18 18 17 17 17 18 21 22 23 23 21 20 20 20 19 18 16 14 13 11 9 7 6 5 4 4 3 3 2 2 3 3 4 6 9 11 14 17 20 23 25 26 26 26 26 26 26 27 28 28 28 28 27 26 25 25 24 24 24 23 23 23 22 22
28 28 27 24 21 20 19 16 13 14 16 18 19 20 21 21 22 22 21 21 21 21 21 22 23 23 23 24 24 24 23 22 21 21 20 18 16 14 13 12 10 9 7 6 5 4 4 3 2 1 2 2 3 4 7 9 12 16 18 21 23 24 25 25 25 25 25 25 26 27 27 27 27 27 25 24 25 24 24 24 24 23 23 23 22
27 27 27 25 23 21 20 19 18 16 16 17 18 19 20 21 21 22 22 22 23 24 26 27 27 28 27 26 25 24 24 23 23 21 18 16 14 14 12 11 9 8 7 6 5 4 4 3 2 1 2 2 3 5 8 11 14 16 19 22 23 24 24 24 24 24 24 24 25 26 26 27 27 27 26 25 25 25 24 24 24 23 23 22 21
25 25 25 24 23 23 22 21 21 19 18 17 17 18 19 21 21 22 22 23 25 27 28 28 28 29 29 27 26 25 25 24 23 20 17 15 14 13 12 11 9 8 7 6 5 5 4 3 1 2 1 1 3 6 9 12 15 17 20 22 23 24 25 25 24 23 23 24 25 26 27 27 27 27 26 25 25 25 25 25 24 23 23 22 21
22 22 22 21 22 23 23 22 23 22 19 18 18 19 20 22 22 23 24 25 26 27 28 28 28 29 29 27 26 26 26 25 23 20 18 16 14 13 12 11 10 8 7 6 5 5 4 2 2 1 1 1 4 7 10 12 15 18 21 22 23 24 25 24 23 23 23 24 26 27 27 28 27 27 26 26 25 25 25 24 24 23 23 22 22
19 19 20 19 18 20 21 22 23 23 21 20 20 21 22 23 23 24 26 27 27 26 26 27 28 28 27 26 26 26 26 25 23 20 18 16 14 13 13 12 10 8 7 5 5 4 2 1 1 1 1 3 6 9 11 13 16 19 21 22 22 23 24 23 23 23 24 24 25 27 28 28 28 27 26 26 26 25 24 24 23 23 22 21 21
15 17 18 16 14 16 20 21 22 22 21 20 21 22 23 23 23 23 24 27 28 27 26 26 26 26 26 25 24 24 23 22 22 20 18 16 14 13 13 12 10 7 6 5 4 3 1 0 1 2 2 5 8 10 12 14 18 20 20 21 22 23 23 23 23 24 24 24 25 27 28 29 28 27 27 26 26 25 24 23 23 22 21 20 19
14 17 18 15 13 15 19 21 21 21 21 21 20 21 22 23 24 24 24 26 29 28 26 24 23 24 24 22 21 19 18 18 18 17 15 14 13 14 14 12 10 7 6 6 4 2 1 2 2 1 4 6 8 10 12 15 18 19 20 21 22 22 22 22 24 24 24 25 26 27 28 29 28 27 27 26 25 24 24 23 23 22 21 20 19
16 18 17 15 14 16 18 19 20 20 20 20 20 20 21 24 26 26 25 26 26 25 24 23 24 24 22 20 17 15 14 15 16 15 14 13 14 15 14 12 9 8 7 6 4 3 3 3 2 2 4 6 8 10 12 15 17 18 19 20 21 21 21 22 23 24 24 25 27 27 28 28 28 27 27 26 25 24 24 23 22 22 21 20 19
21 21 20 19 19 19 19 19 20 21 21 22 22 23 24 26 26 25 24 23 22 21 21 22 23 22 20 17 14 13 14 15 16 15 15 15 15 14 13 10 9 8 7 6 4 3 3 3 3 3 4 6 8 10 13 15 16 17 18 19 19 19 19 21 22 23 23 25 26 27 27 27 27 27 26 25 24 24 23 23 22 21 20 19 18
25 24 24 23 23 22 22 22 22 23 23 24 24 24 24 24 24 22 20 19 18 19 19 19 19 19 18 16 15 15 16 17 17 16 16 15 13 12 11 9 8 7 7 6 5 4 4 4 3 4 5 7 10 12 14 16 16 16 17 17 17 17 17 19 21 22 23 24 25 25 25 26 26 25 24 24 23 23 22 22 21 21 19 18 18
26 26 25 25 24 24 23 23 23 23 23 23 23 22 21 20 18 17 16 16 17 17 18 18 18 18 17 17 17 18 18 17 17 16 15 13 11 10 9 8 7 8 7 7 6 5 5 4 4 5 6 8 10 12 14 16 17 17 17 16 15 15 16 18 20 21 22 24 24 24 24 24 25 24 23 22 22 22 21 21 21 20 18 17 16
27 27 26 25 24 24 23 22 22 22 21 20 19 18 17 16 15 15 16 16 17 18 18 18 18 18 18 19 19 18 18 17 16 15 13 11 9 8 8 8 8 8 7 7 7 6 5 4 4 5 6 8 10 12 14 17 17 17 17 16 15 14 15 17 19 20 21 23 24 23 23 23 23 22 22 21 21 21 20 20 19 19 18 16 14
27 26 25 24 23 23 22 21 20 20 19 19 19 18 18 18 18 18 19 19 20 20 20 19 19 19 19 19 18 17 16 16 14 12 10 9 7 6 7 8 8 8 7 7 7 7 5 4 4 5 7 8 10 11 14 17 17 17 17 17 15 14 15 17 18 19 21 23 24 23 22 22 22 22 21 21 21 20 19 19 18 18 17 16 14
25 25 25 24 23 22 21 20 20 20 20 21 21 21 21 21 21 21 21 21 21 20 19 19 18 18 17 17 16 16 14 13 12 10 8 6 5 6 7 7 8 7 7 8 7 6 4 4 5 5 6 8 9 11 13 15 17 17 17 17 16 15 15 17 18 19 20 22 23 24 23 23 23 22 22 22 21 21 20 19 18 17 16 15 14
24 24 24 24 23 22 22 22 22 22 22 22 23 23 23 22 22 21 21 20 20 19 18 17 16 16 15 15 14 14 12 11 10 8 7 5 5 5 6 7 7 7 7 7 6 5 5 5 5 4 6 8 9 10 12 14 16 17 17 16 15 15 15 16 18 19 20 21 22 23 23 23 23 23 23 23 22 22 21 20 19 18 16 15 13
Wind_Direction
196 198 203 210 211 205 204 204 200 200 202 203 202 203 216 224 224 224 222 218 216 213 212 211 210 210 210 212 213 209 207 206 204 201 196 190 183 177 174 172 173 170 165 169 171 164 151 123 106 98 87 90 110 92 69 63 59 66 67 49 44 38 27 31 26 345 349 356 356 356 355 357 358 357 355 354 353 353 353 354 357 2 5 8 9
193 196 198 202 203 200 201 202 200 202 203 203 201 200 216 228 227 226 227 225 223 222 222 220 219 219 215 215 215 215 218 218 216 216 214 207 200 196 195 192 192 189 180 178 178 176 179 168 139 116 86 70 91 107 68 61 54 52 49 32 25 22 14 12 11 0 349 350 352 352 354 359 2 1 359 357 353 349 346 345 347 349 351 352 353
191 193 194 198 204 203 201 200 200 202 204 204 202 202 218 228 229 230 230 229 228 228 229 228 227 227 224 222 220 219 223 225 225 226 226 225 219 212 212 212 210 207 200 192 188 188 191 186 182 177 154 85 76 93 74 69 45 33 37 21 11 11 5 1 3 0 351 347 350 354 357 2 4 2 359 356 353 350 349 348 346 344 344 343 342
188 191 192 196 200 201 200 200 199 201 203 204 202 207 221 228 230 232 233 233 234 234 234 232 230 231 230 229 227 226 228 230 232 233 233 236 236 232 230 228 227 227 221 211 205 206 203 196 200 205 202 210 211 217 222 214 310 351 20 7 3 4 1 358 357 356 349 344 348 356 0 3 4 3 358 353 354 353 352 351 347 345 345 345 344
181 184 188 192 194 197 201 202 201 200 201 203 205 212 223 228 231 233 235 236 236 237 237 235 233 233 232 233 233 233 234 234 236 238 239 240 241 243 244 243 244 244 239 232 225 224 220 212 212 214 215 220 222 226 231 232 248 259 310 350 358 360 359 359 356 356 353 348 349 354 359 1 1 3 2 358 354 353 352 351 349 348 346 346 348
185 180 180 186 191 197 201 199 198 199 202 205 208 212 220 228 230 230 233 235 232 233 237 237 238 238 238 241 242 240 240 241 242 244 244 244 243 245 247 249 251 251 250 244 238 236 235 231 229 228 226 226 227 231 234 234 241 257 303 334 349 355 359 2 360 359 359 357 356 355 357 360 358 359 3 1 357 356 353 349 348 350 349 346 346
197 187 180 184 191 196 197 195 194 196 201 207 211 214 221 228 228 227 231 233 231 231 233 235 238 240 242 247 250 250 249 249 251 251 250 250 248 248 249 251 252 253 254 251 245 242 241 239 240 239 236 233 230 234 239 239 249 273 297 316 333 344 351 357 0 4 6 5 1 356 355 357 356 355 356 358 358 359 357 351 345 345 347 345 343
202 192 186 189 194 197 196 193 193 196 198 202 206 212 219 222 222 224 227 231 232 231 231 236 242 243 243 246 254 259 259 256 256 257 257 256 254 253 253 253 255 255 254 253 250 246 244 242 241 241 242 239 235 237 243 245 253 267 281 293 307 324 335 340 346 357 2 359 356 352 347 348 351 351 351 355 356 354 355 350 340 338 340 338 339
214 205 201 200 204 206 202 199 201 204 205 203 204 212 217 217 219 224 225 225 230 230 231 241 249 249 246 248 255 260 259 257 257 257 258 260 259 259 257 256 257 257 256 254 251 247 244 243 241 240 241 240 236 238 243 246 252 257 262 272 291 312 322 322 323 334 343 344 345 343 338 339 345 347 346 352 352 343 341 339 334 333 333 330 333
217 214 213 213 216 218 216 216 218 218 216 214 214 218 220 217 221 234 233 222 224 235 241 243 247 250 249 248 251 252 252 254 258 259 259 259 260 260 261 260 260 260 260 258 254 249 244 241 240 239 238 235 232 233 237 242 247 248 250 260 283 303 309 304 305 314 321 326 328 330 330 329 335 340 339 339 339 333 332 334 331 330 332 330 330
216 214 213 214 217 219 222 227 230 226 222 220 220 224 229 229 230 240 244 225 214 232 245 244 246 251 251 249 248 247 249 255 261 262 261 259 258 260 262 263 263 263 263 260 256 253 247 241 238 236 232 229 226 227 232 239 245 245 249 264 282 294 298 297 296 295 298 303 307 313 315 315 323 330 329 326 327 326 327 329 328 328 332 331 324
212 213 211 211 215 219 222 227 229 227 224 224 225 228 234 235 230 234 240 232 216 227 240 244 249 252 248 245 245 246 250 257 261 263 264 263 263 263 264 264 264 262 261 259 256 254 248 240 235 230 227 224 222 224 229 234 239 243 255 274 286 293 297 296 290 286 286 287 292 300 304 305 312 317 317 317 318 319 321 322 323 324 322 316 308
201 205 205 206 209 212 215 219 220 222 222 222 224 226 228 231 228 226 233 235 227 226 232 238 240 238 237 238 241 246 255 264 269 272 275 274 270 265 263 263 263 262 261 260 257 253 247 239 231 224 220 218 219 223 228 232 236 244 258 272 279 284 285 282 280 280 281 283 285 292 297 298 301 303 307 312 313 314 316 315 317 316 312 307 303
196 199 197 200 204 205 209 213 213 216 218 220 223 227 227 226 222 216 215 216 213 212 220 229 230 231 236 241 248 256 259 267 282 291 295 294 283 272 266 263 262 262 262 262 259 254 247 238 228 218 211 210 215 223 230 238 243 249 259 264 265 270 274 277 279 276 276 279 281 286 291 293 295 300 304 307 309 311 312 311 312 311 306 304 303
202 205 200 205 212 211 212 213 214 218 221 219 215 207 197 186 172 167 161 153 153 155 165 185 203 223 246 256 260 263 265 271 279 286 294 291 284 284 278 267 260 259 260 260 257 252 245 236 224 213 205 204 212 222 233 244 249 252 254 256 260 267 273 278 280 278 277 280 282 287 292 294 297 300 302 306 308 309 309 307 306 306 306 307 307
116 211 211 214 217 213 211 212 216 215 204 193 183 171 165 160 154 152 143 130 124 123 131 142 161 203 242 264 272 274 276 275 276 281 284 279 277 284 285 275 264 257 255 253 248 243 238 227 212 203 200 204 215 224 232 238 242 244 245 249 259 268 273 278 281 284 287 288 289 292 292 294 299 301 305 309 312 313 311 308 310 313 313 312 311
45 42 152 212 208 204 209 210 204 192 180 176 174 172 169 166 160 157 148 120 99 92 85 46 359 321 304 295 290 287 284 280 279 278 278 276 275 276 279 275 262 247 239 236 231 221 208 201 199 201 207 218 225 227 230 232 234 237 242 249 257 262 268 277 285 290 293 294 295 297 297 299 302 304 309 314 315 318 316 313 320 322 316 311 308
23 25 36 28 220 201 205 202 188 180 179 181 182 182 180 178 181 196 245 311 326 338 342 341 338 326 315 307 301 296 290 285 280 277 277 276 273 272 271 258 231 214 206 200 198 195 190 190 201 212 217 219 219 220 225 232 236 240 245 250 255 260 269 282 291 293 295 298 301 303 305 307 306 306 310 312 312 315 312 311 317 316 307 302 298
338 2 18 8 9 194 204 205 199 196 198 198 198 200 197 192 208 273 298 306 310 317 325 332 335 330 321 314 306 300 295 289 281 276 274 272 268 265 258 235 205 195 192 186 183 186 189 190 193 201 205 204 207 214 222 232 239 241 249 260 271 283 290 296 300 302 304 309 313 315 316 316 312 309 309 306 304 306 304 306 311 309 302 298 296
245 266 269 287 334 40 198 212 211 210 210 207 203 202 202 206 237 278 289 291 290 293 302 312 322 326 324 320 313 308 306 300 290 279 271 266 261 252 240 224 205 195 191 189 184 179 177 176 177 183 194 195 196 203 213 230 249 260 277 291 299 300 300 304 309 314 319 323 324 324 324 321 317 312 308 304 300 300 299 300 303 305 304 300 296
253 257 253 252 250 238 240 242 223 213 211 208 202 200 207 224 247 260 263 264 265 269 276 285 298 313 320 321 320 319 315 307 297 283 264 250 243 234 224 215 207 197 189 186 184 178 172 170 167 166 170 170 171 193 235 276 297 307 312 312 312 310 312 318 321 323 326 325 324 323 321 319 317 314 312 309 306 303 301 298 297 299 301 301 298
278 269 261 259 252 238 236 239 234 227 225 219 212 214 228 242 253 255 253 253 253 253 256 262 275 293 307 314 317 319 314 304 291 273 249 232 224 220 216 211 206 201 192 183 179 173 167 163 157 152 152 155 166 257 312 324 326 327 328 327 326 324 323 324 324 324 324 323 322 322 321 320 319 317 315 313 310 307 304 301 298 295 294 295 295
291 280 267 258 250 236 229 230 229 229 231 230 223 216 218 230 252 267 267 258 250 246 248 255 263 274 289 302 310 313 307 293 272 244 228 219 213 212 213 208 204 205 203 191 177 166 159 157 156 155 158 186 315 330 335 334 333 335 335 333 330 326 323 323 324 324 323 323 322 321 320 320 319 317 315 312 309 308 305 301 298 296 294 293 292
287 281 269 256 248 240 235 234 236 237 235 232 230 224 225 243 262 275 279 268 256 252 254 255 256 262 272 284 294 296 287 267 240 220 214 213 208 207 207 200 197 200 198 182 166 160 159 162 169 177 208 313 336 344 350 358 358 352 344 337 331 327 326 326 327 326 325 324 323 320 318 317 316 314 312 310 307 305 302 299 296 296 296 294 292
286 279 271 261 254 253 250 244 240 239 236 235 240 244 251 264 273 277 281 281 272 265 261 257 256 257 258 259 264 262 248 228 210 199 198 200 197 195 193 185 180 181 172 158 154 158 163 167 168 157 127 92 82 82 81 77 65 26 350 336 331 330 331 331 332 331 328 325 321 317 316 316 314 312 309 308 305 303 301 300 299 298 297 296 294
297 286 272 263 258 258 255 245 233 226 226 229 235 240 246 256 265 271 279 288 291 283 269 260 254 249 246 243 236 223 210 202 195 187 184 184 179 175 171 162 154 155 155 152 156 160 155 147 138 125 117 113 109 103 97 88 54 351 340 337 337 338 339 339 338 336 332 328 323 318 316 315 313 311 309 308 306 304 304 305 305 304 303 303 301
298 298 284 268 258 253 247 238 227 220 219 220 223 226 230 238 245 254 268 280 284 283 274 262 252 244 237 226 211 196 188 187 186 182 180 175 167 160 156 150 146 153 159 157 156 151 139 130 125 120 116 111 106 98 81 37 356 347 347 346 346 345 343 341 340 337 335 331 326 321 318 317 315 314 314 313 312 311 311 310 307 306 307 308 304
279 283 284 280 268 252 239 230 225 222 221 220 220 223 227 233 239 248 260 268 271 273 272 266 257 246 232 217 196 180 179 186 187 184 180 172 163 158 158 158 160 166 166 156 146 140 136 130 123 117 107 95 84 59 29 9 359 356 354 351 349 346 342 339 337 335 334 331 327 323 321 321 320 319 318 315 313 312 313 312 307 305 306 305 298
269 268 270 274 275 270 256 237 224 220 219 218 218 221 224 228 234 241 249 254 259 266 272 272 267 252 236 221 203 190 194 198 193 184 176 170 166 169 170 166 162 159 156 152 145 140 136 128 116 102 84 68 56 37 21 11 4 360 356 352 348 343 340 338 337 336 335 331 328 326 324 323 322 320 317 313 310 310 311 308 304 302 301 297 290
264 261 260 262 265 268 270 262 243 227 222 219 215 215 218 223 228 232 238 243 249 255 261 265 264 252 236 225 218 215 213 201 185 174 172 173 173 171 163 160 158 152 148 149 147 141 132 118 102 89 74 60 47 35 24 13 5 359 354 350 347 344 342 341 341 339 337 334 330 327 325 322 319 316 314 309 306 307 306 303 300 298 294 290 286
257 257 258 259 259 261 264 261 248 236 232 226 218 213 212 216 222 228 232 236 241 245 248 248 246 242 235 227 223 220 210 190 176 172 174 173 169 163 158 155 152 147 148 151 146 132 120 111 102 89 73 61 49 36 25 13 4 356 349 346 347 347 345 344 343 341 339 336 331 326 323 319 315 312 309 305 303 303 303 301 299 294 289 286 284
254 253 255 258 257 256 254 247 238 230 226 220 214 211 208 205 209 218 227 230 231 232 233 233 234 237 235 230 221 204 187 180 176 173 171 168 163 159 155 150 145 145 152 157 141 120 110 108 105 93 73 63 52 34 19 8 360 354 348 345 346 347 346 344 342 340 338 334 328 323 319 316 312 308 306 303 301 300 299 299 297 292 289 285 282
256 248 246 248 250 249 243 235 228 224 221 215 208 206 206 204 201 200 205 211 213 212 210 212 223 227 219 218 215 197 181 176 174 171 168 166 161 155 150 146 144 145 150 147 129 119 115 109 104 94 74 58 42 23 13 4 356 353 349 346 344 344 344 343 340 337 334 330 324 320 317 314 311 307 304 301 300 297 296 295 294 291 288 285 283
250 245 241 240 242 245 242 235 228 223 220 216 211 208 209 210 205 196 188 182 177 179 181 181 192 203 198 193 191 183 175 171 169 167 165 161 158 155 151 146 144 146 145 134 122 123 124 117 106 96 71 46 27 12 6 1 355 352 349 345 343 342 341 340 338 335 333 330 324 319 316 313 309 305 301 299 299 297 295 293 292 291 288 285 285
242 241 240 238 240 243 248 250 241 227 217 211 210 209 209 209 204 198 193 184 171 161 160 163 172 184 185 180 177 174 170 168 166 164 161 158 156 155 151 147 148 151 150 140 127 123 125 120 111 95 56 26 17 9 5 1 356 351 346 344 342 340 338 337 336 334 332 327 321 316 313 310 307 303 300 299 298 296 294 293 293 291 289 287 286
236 235 235 235 236 238 243 255 255 237 222 213 210 210 209 206 201 196 192 186 174 163 157 158 163 168 172 171 171 170 167 165 163 161 160 158 157 157 156 155 156 158 156 149 142 139 136 131 119 88 32 12 11 9 5 359 352 346 344 343 340 337 335 333 332 330 326 322 317 313 310 308 306 305 303 301 298 297 295 295 295 293 290 289 287
233 229 228 229 230 230 234 241 248 246 235 222 213 210 207 201 196 190 184 178 172 165 160 158 158 159 160 163 165 165 163 161 160 160 159 159 161 164 164 162 161 162 162 160 159 159 156 154 145 67 10 7 10 8 360 353 346 343 343 341 337 333 332 331 329 326 322 318 315 312 310 309 309 309 307 303 301 300 299 298 297 295 293 291 288
231 227 224 222 223 225 226 229 236 247 247 233 217 208 201 194 189 186 180 175 170 165 160 159 159 158 157 159 162 164 162 160 161 162 163 166 168 168 167 165 162 161 161 162 165 170 170 170 175 326 342 359 12 1 349 345 344 343 341 338 334 332 332 332 330 326 322 319 316 314 313 313 314 314 311 306 303 303 303 302 300 297 294 293 288
227 227 224 221 221 224 225 226 229 236 238 228 213 203 195 189 184 181 177 171 166 162 159 159 159 158 157 159 162 163 163 164 165 166 166 168 169 169 170 170 168 164 164 166 170 176 179 185 230 305 329 13 7 349 342 343 344 341 338 335 333 334 335 334 330 327 324 322 320 319 318 318 318 317 315 310 306 305 305 304 302 299 296 294 291
219 220 220 217 216 219 222 222 221 222 222 216 206 198 193 189 185 181 174 166 161 160 159 158 158 159 161 164 166 167 168 170 170 167 166 167 172 177 180 180 177 173 171 172 175 180 188 218 277 306 21 24 349 341 343 345 342 336 335 335 335 335 336 335 331 328 327 327 326 325 322 321 321 320 317 314 312 311 308 306 305 303 300 297 295
208 208 209 208 207 210 211 210 209 209 208 206 200 193 190 188 184 177 169 161 157 156 155 156 159 164 168 170 171 172 172 171 168 167 167 171 178 185 187 188 185 179 175 178 180 183 197 258 303 60 60 1 341 343 347 344 337 334 336 337 336 336 336 336 335 332 330 330 331 329 326 325 324 321 318 316 316 315 313 311 310 308 305 303 301
194 192 194 197 197 196 196 195 194 193 193 192 188 186 186 182 173 164 158 153 152 152 154 157 163 167 169 171 173 175 175 173 170 171 175 181 188 192 190 186 183 178 175 177 174 170 165 110 112 75 15 348 344 348 347 340 335 336 337 336 336 337 337 337 337 336 334 334 334 333 331 330 327 324 322 320 319 319 318 317 317 315 312 310 309
176 176 179 181 181 179 179 180 178 176 176 174 173 175 174 165 157 154 153 150 151 154 157 161 164 166 167 171 175 179 181 181 181 184 189 193 192 186 180 177 175 174 174 171 163 145 124 137 138 10 348 348 348 347 342 337 336 337 337 335 335 337 337 337 339 340 339 337 337 336 335 333 330 327 325 325 324 323 323 324 323 322 320 319 317
149 151 153 153 152 154 159 162 162 160 159 156 155 156 153 148 147 151 151 149 151 156 160 161 164 167 169 173 178 184 190 193 193 193 191 184 177 173 172 174 177 179 179 174 166 154 154 165 201 303 337 347 345 340 338 338 338 338 337 336 335 336 339 341 343 344 343 339 338 338 338 336 333 330 328 328 328 328 328 328 328 327 326 325 324
125 127 126 126 128 131 136 140 143 142 142 140 140 140 141 142 144 147 148 149 153 158 161 165 169 171 171 171 175 181 182 182 180 177 173 169 168 169 172 176 181 185 184 180 179 181 185 203 252 305 333 341 340 341 342 343 342 342 340 337 335 337 342 344 345 345 343 339 337 338 339 338 335 332 331 331 332 331 331 332 333 333 332 330 327
111 113 114 114 116 118 121 125 128 130 131 131 130 130 134 138 141 144 148 152 156 160 164 168 170 170 168 167 169 168 165 163 163 163 163 165 166 169 174 181 188 191 190 188 191 204 214 233 283 319 334 339 343 347 347 345 346 347 344 340 338 341 345 347 346 345 342 339 339 341 342 340 338 337 336 336 336 336 337 339 341 341 340 338 335
100 102 104 106 107 110 113 116 118 119 119 120 122 124 128 134 139 145 150 155 157 159 162 164 164 163 163 162 162 160 158 157 159 160 161 163 166 171 180 188 190 189 190 192 200 215 228 254 303 327 336 343 348 350 349 349 350 351 349 346 344 345 347 349 348 346 343 342 343 345 345 344 344 344 344 343 341 341 344 347 348 349 349 348 347
93 94 97 100 102 105 108 111 112 113 114 116 120 125 130 136 141 144 147 150 151 153 154 154 154 155 156 156 156 156 155 155 157 157 158 162 166 174 184 189 188 187 188 195 207 223 238 267 308 326 339 349 351 353 353 352 353 353 353 353 352 350 350 350 349 347 346 346 349 351 351 351 351 352 352 350 348 347 350 353 354 355 356 356 357
94 96 98 100 101 104 108 111 113 115 118 121 124 126 130 133 136 137 138 140 141 142 144 144 145 146 148 149 150 152 153 154 154 154 154 158 166 176 185 188 189 190 194 204 219 232 243 268 299 320 342 353 354 354 355 356 356 356 356 357 356 354 351 351 350 349 348 350 353 356 356 357 358 0 1 360 356 355 358 1 1 1 0 1 2
97 99 101 101 102 106 111 114 116 118 122 124 123 123 124 126 127 128 130 131 130 131 134 137 139 142 145 147 148 150 152 151 150 150 151 155 165 175 181 185 190 196 205 216 226 233 242 266 293 320 346 355 355 355 357 359 0 360 358 358 356 354 352 353 353 352 351 351 355 358 0 1 3 5 7 8 5 3 3 7 10 9 6 5 5
101 102 102 103 105 108 111 113 114 116 119 121 121 121 121 121 121 122 124 124 124 125 129 132 136 139 143 145 148 150 150 148 146 146 146 147 156 168 176 183 191 199 209 218 223 228 241 262 286 323 350 355 354 353 355 0 4 4 1 358 355 353 353 355 356 355 354 354 355 358 1 4 6 7 9 11 11 9 8 10 14 14 13 12 11
Height
796 798 800 801 803 804 806 809 811 813 814 815 817 818 821 822 822 823 824 825 826 827 827 828 828 829 829 829 830 830 831 831 831 831 831 831 831 832 833 834 835 836 837 837 838 839 839 840 840 840 840 840 840 840 840 840 841 841 841 841 841 842 842 842 843 843 843 843 842 841 840 839 838 837 836 835 834 834 833 833 832 831 831 830 829
794 796 798 800 802 804 805 807 809 812 813 815 816 818 820 821 822 823 824 825 826 827 828 828 828 829 829 830 831 831 832 832 832 832 832 832 832 832 833 834 835 836 836 837 838 839 839 840 840 841 841 841 840 840 840 841 841 841 841 841 841 842 842 842 842 842 842 842 841 841 840 839 838 836 835 834 833 833 832 832 831 830 830 829 829
793 795 798 800 803 805 805 806 808 810 811 813 815 817 818 820 821 822 823 824 826 827 828 828 828 829 830 831 831 832 832 832 833 833 833 833 833 833 834 834 835 836 836 837 838 838 839 839 840 840 841 841 841 841 841 841 841 841 841 841 841 842 842 842 842 842 841 841 841 840 839 838 837 836 835 834 833 832 831 831 830 830 829 829 828
793 795 797 799 802 804 804 805 806 807 809 811 814 816 817 818 819 820 821 823 826 828 828 828 828 829 829 830 831 831 832 832 832 833 833 834 834 835 835 835 836 836 837 837 837 838 838 838 839 840 840 841 841 841 841 841 841 841 841 841 841 841 841 841 842 842 841 841 840 840 839 838 838 836 835 834 833 832 831 830 829 828 828 828 827
793 794 797 799 801 801 802 803 804 805 807 809 812 813 815 816 818 818 819 821 824 826 827 827 827 827 828 828 829 830 831 831 832 832 832 833 833 834 835 836 837 837 838 838 838 838 838 838 838 839 840 840 840 841 841 841 841 841 841 841 841 841 841 841 841 841 841 841 840 840 839 838 837 836 835 833 831 830 830 829 828 827 826 826 826
793 794 796 797 798 799 799 801 803 804 806 808 810 812 813 815 816 817 817 818 821 824 825 826 826 826 827 828 828 829 830 830 831 831 832 832 833 833 834 835 836 837 838 838 838 838 838 838 838 838 839 839 840 840 840 840 841 841 841 841 841 841 840 840 840 840 841 841 840 840 839 837 836 835 835 833 832 830 828 827 826 826 825 824 823
794 795 796 796 797 797 799 801 803 804 806 808 809 811 813 814 815 815 815 816 819 821 822 824 824 825 826 828 829 829 830 830 830 830 831 831 832 833 833 834 835 836 837 837 837 837 837 838 838 838 838 838 839 839 839 839 840 840 840 841 841 841 840 840 839 839 840 840 840 840 839 838 837 836 835 834 832 831 828 826 824 824 824 823 822
794 795 797 796 797 798 799 801 802 803 805 806 808 810 812 813 813 814 814 815 817 818 820 822 823 824 824 826 829 830 830 829 829 829 830 830 831 831 832 833 833 834 835 836 836 836 836 836 837 837 837 837 838 838 838 838 839 839 840 840 840 840 840 840 839 839 839 839 839 839 838 838 837 836 835 833 831 830 829 828 826 824 823 822 822
794 795 796 796 797 798 799 801 802 803 804 805 807 808 810 811 812 813 814 816 817 817 819 822 823 823 822 823 826 829 830 829 827 828 828 828 829 829 830 831 832 832 833 834 834 835 835 835 835 836 836 836 837 837 837 838 838 838 838 839 839 840 840 840 839 839 838 838 838 838 838 837 837 836 834 833 832 831 830 829 828 826 823 821 820
794 795 796 796 797 798 799 800 800 801 802 804 806 807 808 811 813 813 813 815 817 817 818 820 821 820 820 821 823 825 827 827 826 826 826 827 827 828 828 829 830 830 831 832 832 833 833 833 833 834 835 835 836 836 836 837 837 837 837 837 838 839 839 839 839 838 838 837 837 837 836 836 836 836 835 834 833 832 830 829 827 825 823 820 818
796 796 796 797 798 799 799 800 800 800 801 804 806 807 808 810 811 812 811 813 816 817 817 817 817 818 818 819 821 822 824 824 824 824 825 825 826 826 827 827 828 828 829 829 830 830 831 831 831 832 833 833 834 835 835 836 836 836 836 836 837 837 837 837 837 837 837 836 836 836 835 835 835 835 834 833 832 831 830 829 827 825 823 821 818
796 797 797 798 799 799 800 800 800 801 802 804 805 806 807 809 809 810 811 812 814 815 815 815 816 817 818 819 820 821 821 822 822 823 823 823 824 824 825 825 825 826 827 827 827 828 828 829 829 830 831 832 833 834 834 835 835 835 835 836 836 836 836 836 835 835 835 835 834 834 834 834 834 834 833 832 831 830 829 828 827 825 824 823 821
795 796 797 798 798 799 800 800 801 801 802 804 805 805 806 807 808 809 810 811 812 813 813 814 815 817 818 819 819 819 819 820 821 821 821 821 822 822 822 823 823 824 824 825 825 825 826 827 827 828 829 831 832 833 833 833 833 834 834 835 835 835 835 835 834 834 834 834 833 833 832 832 832 832 832 831 830 829 827 826 825 824 823 822 820
795 795 796 796 797 798 799 800 801 802 803 803 804 804 804 805 806 807 808 809 810 811 812 813 815 816 817 817 817 817 818 819 819 820 820 820 820 820 820 821 821 821 822 822 822 823 823 824 825 826 828 830 831 832 832 833 833 833 833 834 834 834 834 834 833 833 833 833 832 832 831 831 831 830 830 830 829 828 826 824 823 822 820 819 818
795 795 795 795 796 797 798 799 800 801 802 802 803 803 803 804 805 806 807 808 809 811 812 813 814 814 815 815 816 816 817 818 818 819 819 819 819 819 819 819 819 819 819 820 820 821 822 823 824 825 827 829 830 831 831 832 832 832 833 833 833 833 832 832 832 832 832 832 831 831 830 830 829 829 828 828 827 826 825 823 822 820 818 816 815
795 795 795 795 795 795 796 797 798 800 801 801 802 803 803 804 805 806 807 808 809 810 811 812 812 813 814 814 815 815 816 817 817 817 818 818 818 817 817 817 817 817 817 818 818 819 820 822 823 825 826 827 828 829 829 830 831 831 831 832 831 831 831 831 831 831 831 831 831 830 829 829 828 827 827 826 825 824 823 821 820 819 817 814 812
797 797 796 795 795 795 796 796 797 799 800 801 802 803 803 804 805 806 807 808 808 809 810 811 811 812 813 813 814 814 815 815 816 816 816 816 816 816 816 816 816 816 816 817 817 818 819 821 822 823 824 825 826 827 828 829 830 830 830 830 830 830 830 831 831 831 830 830 829 829 828 827 826 825 825 824 823 822 821 819 819 817 815 813 811
799 798 797 797 796 796 796 797 797 798 799 800 801 802 803 804 805 806 807 807 808 809 809 810 811 811 812 813 813 813 814 814 814 815 815 815 815 815 815 814 815 815 815 816 817 818 819 820 821 822 823 824 825 826 827 828 829 829 829 829 829 830 830 830 830 830 830 829 828 827 826 826 825 824 824 823 822 821 820 818 817 816 814 813 811
800 799 798 798 798 797 797 798 798 799 799 800 800 801 802 803 804 805 806 806 807 808 808 809 810 811 811 812 812 812 812 812 812 813 813 813 813 814 814 814 814 814 815 816 816 817 818 819 821 822 823 824 824 825 826 827 827 828 828 828 829 829 829 829 829 828 827 827 826 825 824 824 823 822 822 821 820 820 819 817 816 815 813 811 810
800 799 799 798 798 798 798 798 799 799 799 799 800 800 801 802 803 804 805 806 806 807 808 809 809 810 810 810 810 810 810 810 810 811 811 812 812 812 812 813 813 814 815 815 816 817 818 819 820 821 822 823 824 825 826 826 827 827 827 827 828 828 828 828 827 826 825 824 824 823 822 821 821 820 820 819 818 817 817 815 814 813 811 809 808
799 798 798 798 797 797 798 798 799 799 799 799 799 800 801 802 803 804 805 806 806 807 808 808 809 809 809 809 809 809 809 809 809 809 810 810 811 811 812 812 813 813 814 815 816 817 818 819 820 821 822 823 824 825 825 825 826 826 826 827 827 827 827 826 825 825 824 823 822 821 820 819 819 818 817 817 816 815 814 813 812 811 810 808 806
797 796 796 796 796 796 797 798 798 799 799 799 799 799 800 801 802 803 804 805 806 807 807 808 809 809 809 809 808 808 808 808 808 808 809 810 810 811 811 812 813 813 814 815 816 817 818 819 820 821 823 823 824 824 824 825 825 826 826 826 826 826 826 825 824 823 822 821 820 819 818 817 816 816 815 814 813 812 811 810 809 808 807 806 804
794 794 794 794 794 794 795 796 797 797 797 798 798 798 799 801 802 802 803 804 805 806 807 807 808 808 808 808 808 808 808 808 808 808 809 809 810 811 811 812 813 813 814 815 816 817 819 820 821 822 822 823 823 824 824 824 825 825 825 826 826 825 824 824 823 822 820 820 818 817 816 816 814 813 812 811 810 809 808 807 806 805 803 802 801
791 791 791 791 792 792 793 794 795 796 796 796 796 797 798 799 800 801 802 803 804 805 805 806 806 806 806 806 807 807 807 808 808 808 809 810 810 811 811 812 813 814 814 815 817 818 819 820 821 821 822 822 823 824 824 824 825 825 825 825 825 824 823 822 822 821 819 819 817 816 815 814 813 811 810 808 807 805 804 803 801 801 799 798 797
788 788 788 789 789 789 790 790 792 793 793 794 795 795 796 797 798 798 799 800 801 802 803 804 804 804 805 805 806 806 807 808 808 808 809 810 810 811 812 812 813 814 815 817 818 819 819 820 821 821 822 822 823 824 824 825 825 825 825 825 824 823 823 822 821 820 819 818 817 815 814 812 811 809 807 805 804 802 800 799 797 796 795 793 792
786 786 786 786 786 786 786 787 788 789 790 791 792 793 794 795 796 797 797 798 799 800 801 801 802 803 803 804 805 805 806 807 808 809 809 810 811 811 812 813 814 815 816 817 818 819 820 821 821 821 822 822 823 824 825 825 825 825 824 824 823 823 822 821 820 819 818 817 815 813 812 810 808 806 804 802 800 798 797 795 794 792 791 789 787
785 784 783 783 783 783 783 783 784 785 786 787 789 790 791 793 794 794 795 796 797 798 799 800 800 801 802 804 805 805 806 807 808 809 810 810 811 812 813 814 815 816 816 817 818 819 820 821 822 822 823 823 824 824 824 824 824 824 824 823 823 822 821 820 819 818 817 815 813 811 809 807 805 803 801 799 797 796 795 793 791 789 788 787 784
783 783 782 782 782 781 781 781 781 782 783 785 786 787 788 789 790 792 793 794 795 796 797 797 798 799 801 802 804 806 808 808 808 809 809 810 811 812 813 814 814 816 817 817 819 820 820 821 822 823 823 824 824 824 824 823 823 823 823 823 822 821 820 819 818 817 815 813 811 808 806 804 802 800 799 797 795 794 792 791 789 787 786 784 782
781 780 780 780 780 780 780 779 779 780 781 782 783 784 786 787 788 789 791 792 793 794 795 795 796 797 798 799 801 803 805 806 807 809 810 811 811 812 813 814 814 815 817 818 819 820 821 822 823 823 823 823 823 823 823 823 823 822 822 822 821 820 819 817 816 814 812 810 808 806 804 802 800 799 797 795 793 791 790 789 787 785 783 782 780
778 777 777 777 778 778 778 778 778 778 779 779 781 782 783 785 786 787 789 790 791 792 793 794 794 795 796 798 799 800 801 803 806 809 810 811 811 812 813 814 815 815 817 818 819 820 821 822 822 823 823 823 823 822 822 822 822 821 821 820 819 818 817 816 814 812 810 808 806 804 802 800 798 797 795 793 790 789 787 786 784 782 781 779 777
774 774 774 774 774 775 776 776 776 777 777 778 779 780 781 783 784 785 786 788 789 790 791 792 793 794 795 796 797 799 801 803 806 808 809 810 811 812 813 814 815 816 817 818 819 820 821 821 822 822 822 822 822 822 822 821 821 820 819 818 818 817 815 814 812 810 808 806 804 802 801 799 797 795 793 790 788 786 784 782 781 780 778 776 774
771 770 771 771 771 772 773 774 774 775 776 776 777 778 779 781 782 783 784 785 787 788 789 790 791 793 794 795 796 798 800 803 805 807 809 810 811 812 813 814 815 816 818 819 819 820 821 821 821 822 822 821 821 821 821 820 820 819 818 817 816 815 813 811 810 808 806 804 802 801 799 797 795 792 790 788 786 783 781 780 778 777 775 773 771
768 767 768 768 769 769 770 771 772 772 773 774 775 776 777 778 780 781 782 784 785 786 787 788 790 791 793 794 795 797 799 802 804 806 808 809 810 811 813 814 815 817 818 818 819 819 820 820 820 821 820 820 820 820 820 820 819 818 818 816 815 813 811 810 808 806 804 803 801 799 797 795 793 790 788 786 783 781 779 777 775 774 772 770 768
763 764 765 766 766 767 767 768 768 769 770 771 772 774 775 776 777 779 780 782 783 784 785 787 789 791 792 794 796 798 800 802 804 806 807 809 810 811 813 814 815 817 817 818 818 819 819 820 820 820 820 820 820 819 819 819 818 817 816 815 813 811 810 808 806 804 802 801 799 797 795 793 791 788 786 783 781 779 777 774 773 771 769 767 765
757 759 761 762 763 764 765 766 766 767 767 768 769 771 772 773 774 776 778 779 781 783 784 786 788 791 792 794 796 798 801 803 804 806 807 808 810 811 812 814 815 816 817 817 818 818 819 819 819 819 819 819 819 819 819 818 817 816 815 813 811 809 808 806 804 802 801 799 797 795 793 791 788 786 784 781 779 776 774 772 770 768 766 764 762
751 753 755 757 759 761 763 764 765 765 765 766 767 768 769 771 772 774 776 778 779 781 783 785 788 791 793 795 797 799 801 803 804 806 807 808 810 811 812 813 814 815 816 817 817 818 818 818 818 819 819 819 819 818 818 817 816 815 814 812 810 808 806 804 803 801 799 797 795 793 791 788 786 783 781 779 776 774 771 769 767 765 763 762 760
746 748 750 753 755 758 760 762 763 764 764 765 765 766 767 769 771 773 774 776 778 780 782 784 787 790 793 795 797 799 801 803 804 806 808 809 810 811 812 813 814 815 816 816 817 817 818 818 818 818 818 818 818 817 817 816 815 814 812 811 809 807 805 803 801 799 797 795 793 791 789 786 783 781 779 776 773 771 769 767 764 762 760 759 757
742 743 746 749 752 754 757 759 761 762 763 763 764 765 766 768 770 772 773 775 777 779 781 783 786 788 791 794 797 798 800 802 805 807 808 809 810 811 812 813 814 815 815 816 816 817 817 817 817 818 817 817 817 817 816 815 814 812 811 809 807 806 804 801 800 798 796 794 791 789 786 784 781 779 776 774 771 769 766 764 762 759 757 756 754
739 741 744 747 749 752 754 756 758 760 761 762 763 764 766 768 770 771 773 774 776 778 780 783 786 788 790 793 795 798 800 802 804 806 807 808 809 810 811 812 813 814 815 815 816 816 817 817 817 817 817 817 817 816 816 814 813 811 810 808 806 804 802 799 798 796 794 792 789 787 784 781 779 776 774 772 769 766 764 762 759 757 755 753 751
736 739 742 744 747 749 751 754 756 757 759 761 762 764 765 767 769 770 772 773 775 778 780 782 785 788 790 792 794 797 799 802 803 805 806 807 808 810 811 812 813 813 814 815 816 816 817 817 817 817 817 817 817 816 814 813 812 810 809 807 804 802 800 798 796 794 792 790 787 785 782 779 777 774 772 769 767 764 762 759 757 755 752 750 748
734 737 740 743 745 747 749 751 753 755 757 759 761 763 764 766 768 770 771 773 775 778 781 783 786 789 791 793 795 797 799 801 803 804 805 807 808 809 810 811 812 813 814 815 815 816 816 816 817 817 817 817 816 815 813 812 811 810 807 805 803 801 799 797 795 793 790 788 786 783 780 778 775 773 770 767 765 762 760 757 754 752 750 748 746
734 737 740 742 744 745 748 750 752 754 756 758 760 762 764 766 768 770 772 774 776 779 782 785 787 790 792 794 797 798 800 801 802 804 805 807 808 809 810 811 812 813 814 815 815 816 816 816 817 817 817 816 815 813 812 812 810 808 806 804 802 800 797 795 793 791 789 787 785 782 779 776 773 771 768 765 763 760 757 755 752 750 748 746 744
735 737 740 742 744 745 747 749 752 754 756 758 760 762 764 766 768 772 775 775 777 780 783 785 788 791 793 796 798 799 800 801 803 804 805 806 807 809 810 811 812 813 814 815 815 816 816 816 817 816 816 815 814 813 812 811 809 807 805 803 801 798 796 794 792 790 788 786 783 780 778 775 772 769 766 764 761 758 755 753 750 748 746 744 742
737 739 742 744 745 747 749 751 753 755 757 759 761 763 766 767 770 774 776 777 779 781 784 787 789 792 794 796 797 799 800 801 803 804 805 806 808 809 810 811 812 813 814 814 815 816 816 816 816 816 815 814 813 813 812 810 809 806 804 802 800 797 795 793 791 789 787 784 781 779 776 773 770 768 765 762 759 757 754 751 749 746 744 742 740
740 742 744 746 747 749 751 753 755 757 759 761 763 766 768 770 772 775 777 779 781 783 786 788 790 792 794 796 797 799 800 801 803 804 805 807 808 809 810 811 812 813 814 814 815 816 816 816 815 815 814 814 813 812 811 810 808 806 804 801 799 797 794 792 790 788 786 784 781 778 775 772 769 766 764 761 758 756 753 750 748 745 743 741 739
745 746 747 749 751 752 754 756 758 760 762 763 765 768 770 772 775 777 779 781 783 785 788 790 792 793 795 796 798 799 800 802 803 805 806 807 809 810 811 812 812 813 814 815 815 815 815 815 815 814 814 813 813 812 810 809 807 805 803 801 799 796 794 792 790 788 786 783 780 777 774 771 769 766 763 760 758 755 752 749 747 745 742 740 738
750 751 752 753 754 756 758 760 761 763 765 766 768 770 773 775 778 780 782 784 786 787 789 791 793 794 796 797 798 800 801 802 804 805 807 808 809 810 811 812 813 813 814 815 815 815 815 815 815 814 813 813 812 811 809 808 806 804 802 800 798 796 794 792 790 788 786 783 780 777 774 771 768 765 762 760 757 754 752 749 747 744 742 740 738
755 756 757 758 759 761 762 764 765 767 768 770 772 775 777 779 781 783 785 786 788 789 791 793 794 795 796 798 799 801 802 803 805 806 808 809 810 811 811 812 813 814 814 815 814 814 814 814 814 814 813 812 811 810 809 807 805 803 801 800 798 796 794 792 790 788 785 783 780 777 774 771 768 765 762 759 757 754 751 749 746 744 742 740 738
760 761 762 763 764 765 767 768 770 771 773 774 776 778 780 782 784 785 787 788 790 791 792 793 794 796 797 799 800 802 803 805 806 807 808 809 810 811 812 812 813 813 814 814 814 814 814 814 814 813 812 812 811 809 808 806 804 802 801 799 797 796 794 792 790 788 785 783 780 777 774 771 768 765 762 759 757 754 752 749 747 744 742 741 739
766 766 767 768 768 770 771 772 774 775 777 778 780 781 783 785 786 788 789 790 791 792 793 795 796 798 799 800 802 803 804 806 807 808 809 810 811 811 812 812 812 813 813 813 813 813 814 814 813 813 812 811 810 809 808 806 804 802 800 798 797 795 793 791 789 787 785 782 780 777 774 771 768 765 762 760 757 755 752 750 747 745 743 741 740
770 771 772 772 773 774 775 776 777 779 780 782 783 784 786 787 789 790 791 792 793 794 795 796 798 799 801 802 803 804 806 807 808 809 810 811 811 811 812 811 812 812 813 813 813 813 813 813 813 812 812 811 810 809 807 806 804 802 800 798 797 795 793 791 789 787 785 782 780 777 774 772 769 766 763 760 757 755 753 751 748 746 744 742 741